AALTO-1 (42775 NORAD) Tracking and Keplerian Element Data

This shows tracking and keplerian element data for the satellite.

Feedback or suggestion? Click here.




ElementValue
Catalog42775
NameAALTO-1
Epoch Orbit5974
Epoch Day202.70848438
Epoch Year2018
RAAN261.4259
Inclination97.3977
Eccentricity0.0012799
Argument of Perigee308.0485
Mean Anonmoly51.9595
Mean Motion15.20804982
Decay Rate6.38E-06
L11 42775U 17036L 18202.70848438 .00000638 00000-0 32027-4 0 9992
L22 42775 97.3977 261.4259 0012799 308.0485 51.9595 15.20804982 59742

Live tracking and technical data element details for AALTO-1 (NORAD 42775). AALTO-1 can be tracked NOW for your location showing map with azimuth and elevation plus other details from your city location.

Track the satellite on the map from your city or location and see movement details for azimuth, elevation, latitude, longitude, range, height, and movement on the map or in text.







IsCatalogInMostPopularTable: catalog: 42775, numindb: 93
Update: records affected: 1



GetName: 42775 AALTO-1

Hit Count: updated at: Mon, 23 Jul 2018 07:53:24 GMT